Weather History for Pinedale, WY

Change the Weather History Date:

Saturday, March 2, 2013

  Actual Average (KBPI) Record (KBPI)
Temperature  
Mean Temperature 32 °F 21 °F  
Max Temperature 42 °F 35 °F 56 °F (1994)
Min Temperature 21 °F 7 °F -19 °F (2002)
Degree Days  
Heating Degree Days 34 44  
Month to date heating degree days 89  
Since 1 July heating degree days 7612  
Cooling Degree Days 0 0  
Month to date cooling degree days 0  
Year to date cooling degree days 0  
Moisture  
Dew Point 26 °F    
Average Humidity 81    
Maximum Humidity 100    
Minimum Humidity 49    
Precipitation  
Precipitation 0.00 in 0.01 in 0.05 in (1997)
Month to date precipitation 0.02  
Year to date precipitation 0.68  
Sea Level Pressure  
Sea Level Pressure 30.32 in    
Wind  
Wind Speed 6 mph (WNW)    
Max Wind Speed 12 mph    
Max Gust Speed -    
Visibility 10 miles    
Events      
T = Trace of Precipitation, MM = Missing Value Source: NWS Daily Summary

Daily Weather History Graph

Daily Weather History Graph

Search for Another Location

Airport:

Trip Planner

Search our weather history database for the weather conditions in past years. The results will help you decide how hot, cold, wet, or windy it might be!

Date:

Astronomy

Mar. 02, 2013 Rise Set
Actual Time 6:52 AM MST 6:10 PM MST
Civil Twilight 6:24 AM MST 6:38 PM MST
Nautical Twilight 5:51 AM MST 7:11 PM MST
Astronomical Twilight 5:19 AM MST 7:44 PM MST
Moon No Moon Rise 9:15 AM MST
Length of Visible Light 12h 14m
Length of Day
11h 17m
Waning Gibbous, 73% of the Moon is Illuminated
Mar 2
Waning Gibbous
Mar 4
Last Quarter
Mar 11
New
Mar 19
First Quarter
Mar 27
Full

Hourly Weather History & Observations

Time (MST) Temp. Windchill Dew Point Humidity Pressure Visibility Wind Dir Wind Speed Gust Speed Precip Events Conditions
12:15 AM 28.4 °F 18.5 °F 23.0 °F 80% 30.43 in 10.0 mi NNW 11.5 mph - N/A   Clear
12:35 AM 26.6 °F 17.5 °F 23.0 °F 86% 30.44 in 10.0 mi NW 9.2 mph - N/A   Clear
12:55 AM 26.6 °F 18.2 °F 23.0 °F 86% 30.44 in 10.0 mi NW 8.1 mph - N/A   Clear
1:15 AM 26.6 °F 17.5 °F 23.0 °F 86% 30.44 in 10.0 mi WNW 9.2 mph - N/A   Clear
1:35 AM 26.6 °F 16.2 °F 23.0 °F 86% 30.45 in 10.0 mi WNW 11.5 mph - N/A   Clear
1:55 AM 28.4 °F 18.5 °F 24.8 °F 86% 30.44 in 10.0 mi WNW 11.5 mph - N/A   Clear
2:15 AM 26.6 °F 18.2 °F 23.0 °F 86% 30.45 in 10.0 mi West 8.1 mph - N/A   Scattered Clouds
2:35 AM 26.6 °F 18.2 °F 23.0 °F 86% 30.45 in 10.0 mi West 8.1 mph - N/A   Clear
2:55 AM 23.0 °F 15.8 °F 21.2 °F 93% 30.45 in 10.0 mi WNW 5.8 mph - N/A   Scattered Clouds
3:15 AM 21.2 °F 14.9 °F 19.4 °F 93% 30.44 in 10.0 mi WNW 4.6 mph - N/A   Mostly Cloudy
3:35 AM 21.2 °F 12.6 °F 21.2 °F 100% 30.44 in 10.0 mi WNW 6.9 mph - N/A   Overcast
3:55 AM 23.0 °F 15.8 °F 21.2 °F 93% 30.43 in 10.0 mi NW 5.8 mph - N/A   Mostly Cloudy
4:15 AM 21.2 °F 12.6 °F 21.2 °F 100% 30.43 in 10.0 mi NW 6.9 mph - N/A   Mostly Cloudy
4:55 AM 23.0 °F - 23.0 °F 100% 30.43 in 10.0 mi Calm Calm - N/A   Overcast
5:35 AM 24.8 °F 17.9 °F 23.0 °F 93% 30.44 in 10.0 mi NW 5.8 mph - N/A   Overcast
5:55 AM 24.8 °F 19.1 °F 21.2 °F 86% 30.43 in 10.0 mi NNW 4.6 mph - N/A   Mostly Cloudy
6:15 AM 21.2 °F 16.4 °F 19.4 °F 93% 30.44 in 10.0 mi North 3.5 mph - N/A   Scattered Clouds
6:35 AM 21.2 °F - 19.4 °F 93% 30.44 in 10.0 mi Calm Calm - N/A   Clear
6:55 AM 21.2 °F - 19.4 °F 93% 30.44 in 10.0 mi Calm Calm - N/A   Scattered Clouds
7:15 AM 21.2 °F - 19.4 °F 93% 30.44 in 10.0 mi Calm Calm - N/A   Mostly Cloudy
7:35 AM 21.2 °F - 19.4 °F 93% 30.43 in 10.0 mi Calm Calm - N/A   Scattered Clouds
7:55 AM 21.2 °F 16.4 °F 19.4 °F 93% 30.43 in 10.0 mi NNW 3.5 mph - N/A   Clear
8:15 AM 24.8 °F 20.5 °F 23.0 °F 93% 30.43 in 10.0 mi WNW 3.5 mph - N/A   Scattered Clouds
8:35 AM 28.4 °F 20.4 °F 24.8 °F 86% 30.43 in 10.0 mi NW 8.1 mph - N/A   Scattered Clouds
8:55 AM 30.2 °F 23.4 °F 23.0 °F 75% 30.43 in 10.0 mi NW 6.9 mph - N/A   Scattered Clouds
9:15 AM 32.0 °F 26.4 °F 24.8 °F 75% 30.43 in 10.0 mi WNW 5.8 mph - N/A   Clear
9:35 AM 32.0 °F - 24.8 °F 75% 30.42 in 10.0 mi Calm Calm - N/A   Clear
9:55 AM 32.0 °F 28.7 °F 26.6 °F 80% 30.42 in 10.0 mi NW 3.5 mph - N/A   Clear
10:15 AM 33.8 °F 29.6 °F 26.6 °F 75% 30.42 in 10.0 mi NW 4.6 mph - N/A   Clear
10:35 AM 33.8 °F 29.6 °F 26.6 °F 75% 30.40 in 10.0 mi NW 4.6 mph - N/A   Clear
10:55 AM 35.6 °F 29.9 °F 28.4 °F 75% 30.40 in 10.0 mi WNW 6.9 mph - N/A   Clear
11:15 AM 35.6 °F 30.7 °F 28.4 °F 75% 30.39 in 10.0 mi NW 5.8 mph - N/A   Clear
11:35 AM 35.6 °F 30.7 °F 28.4 °F 75% 30.38 in 10.0 mi NNW 5.8 mph - N/A   Clear
11:55 AM 37.4 °F 32.1 °F 28.4 °F 70% 30.37 in 10.0 mi NW 6.9 mph - N/A   Clear
12:15 PM 37.4 °F 32.8 °F 28.4 °F 70% 30.36 in 10.0 mi NW 5.8 mph - N/A   Clear
12:35 PM 37.4 °F 32.8 °F 28.4 °F 70% 30.35 in 10.0 mi NNW 5.8 mph - N/A   Clear
12:55 PM 39.2 °F 35.9 °F 28.4 °F 65% 30.34 in 10.0 mi NW 4.6 mph - N/A   Clear
1:15 PM 39.2 °F 37.0 °F 28.4 °F 65% 30.32 in 10.0 mi NW 3.5 mph - N/A   Clear
1:35 PM 41.0 °F 39.0 °F 26.6 °F 57% 30.31 in 10.0 mi NW 3.5 mph - N/A   Clear
1:55 PM 41.0 °F 39.0 °F 28.4 °F 61% 30.30 in 10.0 mi NW 3.5 mph - N/A   Clear
2:15 PM 41.0 °F 39.0 °F 26.6 °F 57% 30.29 in 10.0 mi WNW 3.5 mph - N/A   Clear
2:35 PM 42.8 °F - 26.6 °F 53% 30.28 in 10.0 mi Calm Calm - N/A   Clear
2:55 PM 42.8 °F - 28.4 °F 57% 30.27 in 10.0 mi Calm Calm - N/A   Clear
3:15 PM 42.8 °F - 26.6 °F 53% 30.26 in 10.0 mi Calm Calm - N/A   Clear
3:35 PM 42.8 °F - 24.8 °F 49% 30.26 in 10.0 mi Calm Calm - N/A   Clear
3:55 PM 42.8 °F - 24.8 °F 49% 30.25 in 10.0 mi Calm Calm - N/A   Clear
4:15 PM 42.8 °F - 26.6 °F 53% 30.25 in 10.0 mi Calm Calm - N/A   Clear
4:35 PM 42.8 °F 41.1 °F 26.6 °F 53% 30.24 in 10.0 mi South 3.5 mph - N/A   Clear
4:55 PM 42.8 °F 38.6 °F 30.2 °F 61% 30.24 in 10.0 mi SW 6.9 mph - N/A   Clear
5:15 PM 41.0 °F 39.0 °F 28.4 °F 61% 30.23 in 10.0 mi WSW 3.5 mph - N/A   Clear
5:35 PM 37.4 °F 34.9 °F 30.2 °F 75% 30.22 in 10.0 mi WNW 3.5 mph - N/A   Clear
5:55 PM 35.6 °F 30.7 °F 30.2 °F 81% 30.21 in 10.0 mi North 5.8 mph - N/A   Clear
6:15 PM 35.6 °F 32.8 °F 30.2 °F 81% 30.21 in 10.0 mi North 3.5 mph - N/A   Clear
6:35 PM 33.8 °F - 28.4 °F 81% 30.19 in 10.0 mi Calm Calm - N/A   Clear
6:55 PM 32.0 °F 28.7 °F 28.4 °F 87% 30.18 in 10.0 mi West 3.5 mph - N/A   Clear
7:15 PM 32.0 °F 28.7 °F 30.2 °F 93% 30.18 in 10.0 mi WNW 3.5 mph - N/A   Clear
7:35 PM 32.0 °F 27.5 °F 30.2 °F 93% 30.17 in 10.0 mi NW 4.6 mph - N/A   Clear
7:55 PM 32.0 °F 27.5 °F 30.2 °F 93% 30.17 in 10.0 mi NW 4.6 mph - N/A   Clear
8:15 PM 32.0 °F 26.4 °F 30.2 °F 93% 30.15 in 10.0 mi NNW 5.8 mph - N/A   Clear
8:35 PM 32.0 °F 28.7 °F 30.2 °F 93% 30.15 in 10.0 mi SW 3.5 mph - N/A   Clear
8:55 PM 30.2 °F 25.4 °F 30.2 °F 100% 30.14 in 10.0 mi West 4.6 mph - N/A   Clear
9:15 PM 30.2 °F 25.4 °F 28.4 °F 93% 30.14 in 10.0 mi West 4.6 mph - N/A   Clear
9:35 PM 30.2 °F 25.4 °F 28.4 °F 93% 30.13 in 10.0 mi NW 4.6 mph - N/A   Clear
9:55 PM 30.2 °F 26.7 °F 28.4 °F 93% 30.12 in 10.0 mi NW 3.5 mph - N/A   Clear
10:15 PM 28.4 °F 22.2 °F 26.6 °F 93% 30.12 in 10.0 mi West 5.8 mph - N/A   Scattered Clouds
10:35 PM 28.4 °F 24.6 °F 26.6 °F 93% 30.10 in 10.0 mi SW 3.5 mph - N/A   Scattered Clouds
10:55 PM 26.6 °F 21.2 °F 26.6 °F 100% 30.10 in 10.0 mi WNW 4.6 mph - N/A   Scattered Clouds
11:15 PM 26.6 °F 20.0 °F 26.6 °F 100% 30.09 in 10.0 mi West 5.8 mph - N/A   Clear
11:35 PM 26.6 °F 20.0 °F 26.6 °F 100% 30.09 in 10.0 mi NW 5.8 mph - N/A   Clear
11:55 PM 26.6 °F 19.1 °F 26.6 °F 100% 30.09 in 10.0 mi WNW 6.9 mph - N/A   Scattered Clouds